Mazar-I-Sharif, Afghanistan

6:41 PM +0430 on September 19, 2017 (GMT +0430)
Mazar

Weather History for OAMS - November, 2013

Change the Weather History Date:

Tuesday, November 12, 2013

  Actual Average Record
Temperature  
Mean Temperature 57 °F -  
Max Temperature 64 °F 58 °F - ()
Min Temperature 50 °F 36 °F - ()
Degree Days  
Heating Degree Days 8    
Growing Degree Days 7 (Base 50)    
Moisture  
Dew Point 29 °F    
Average Humidity 36    
Maximum Humidity 47    
Minimum Humidity 24    
Precipitation  
Precipitation 0.00 in 0.02 in - ()
Sea Level Pressure  
Sea Level Pressure 30.15 in    
Wind  
Wind Speed 9 mph ()    
Max Wind Speed 17 mph    
Max Gust Speed -    
Visibility 6.0 miles    
Events      
T = Trace of Precipitation, MM = Missing Value Source: Averaged Metar Reports

Daily Weather History Graph

Daily Weather History Graph

Search for Another Location

Airport or City:

Trip Planner

Search our weather history database for the weather conditions in past years. The results will help you decide how hot, cold, wet, or windy it might be!

Date:

Astronomy

Nov. 12, 2013 Rise Set
Actual Time 6:35 AM +0430 4:54 PM +0430
Civil Twilight 6:08 AM +0430 5:21 PM +0430
Nautical Twilight 5:37 AM +0430 5:52 PM +0430
Astronomical Twilight 5:06 AM +0430 6:23 PM +0430
Moon 1:46 PM +0430 (11/12) 1:06 AM +0430 (11/12)
Length of Visible Light 11h 13m
Length of Day
10h 18m
Waxing Gibbous, 72% of the Moon is Illuminated
Nov 12
Waxing Gibbous
Nov 17
Full
Nov 26
Last Quarter
Dec 3
New
Dec 9
First Quarter

Hourly Weather History & Observations

Time (+0430) Temp. Dew Point Humidity Pressure Visibility Wind Dir Wind Speed Gust Speed Precip Events Conditions
12:20 AM 53.6 °F 33.8 °F 47% 30.21 in 5.6 mi West 6.9 mph - N/A   Partly Cloudy
1:20 AM 53.6 °F 33.8 °F 47% 30.21 in 5.6 mi SSW 3.5 mph - N/A   Partly Cloudy
2:20 AM 53.6 °F 33.8 °F 47% 30.18 in 5.6 mi SSW 5.8 mph - N/A   Partly Cloudy
3:20 AM 53.6 °F 33.8 °F 47% 30.18 in 5.6 mi SW 2.3 mph - N/A   Partly Cloudy
4:20 AM 53.6 °F 32.0 °F 44% 30.18 in 5.6 mi WSW 12.7 mph - N/A   Partly Cloudy
5:20 AM 53.6 °F 32.0 °F 44% 30.18 in 5.6 mi WSW 15.0 mph - N/A   Partly Cloudy
6:20 AM 53.6 °F 32.0 °F 44% 30.15 in 5.6 mi WSW 17.3 mph - N/A   Unknown
7:20 AM 53.6 °F 32.0 °F 44% 30.15 in 6.2 mi WSW 15.0 mph - N/A   Unknown
8:20 AM 57.2 °F 32.0 °F 38% 30.15 in 6.2 mi WSW 13.8 mph - N/A   Unknown
9:20 AM 60.8 °F 32.0 °F 34% 30.15 in 6.2 mi West 17.3 mph - N/A   Unknown
10:20 AM 62.6 °F 33.8 °F 34% 30.15 in 6.2 mi West 15.0 mph - N/A   Unknown
11:20 AM 62.6 °F 32.0 °F 32% 30.15 in 6.2 mi WNW 15.0 mph - N/A   Unknown
12:20 PM 64.4 °F 33.8 °F 32% 30.12 in 6.2 mi West 15.0 mph - N/A   Clear
1:20 PM 62.6 °F 32.0 °F 32% 30.12 in 6.2 mi NNW 13.8 mph - N/A   Clear
2:20 PM 62.6 °F 32.0 °F 32% 30.09 in 6.2 mi WNW 8.1 mph - N/A   Clear
3:20 PM 60.8 °F 32.0 °F 34% 30.09 in 6.2 mi WNW 8.1 mph - N/A   Clear
4:20 PM 59.0 °F 30.2 °F 34% 30.09 in 6.2 mi West 10.4 mph - N/A   Clear
5:20 PM 59.0 °F 30.2 °F 34% 30.12 in 6.2 mi WSW 10.4 mph - N/A   Clear
6:20 PM 55.4 °F 19.4 °F 25% 30.12 in 6.2 mi WSW 9.2 mph - N/A   Clear
7:20 PM 53.6 °F 17.6 °F 24% 30.12 in 6.2 mi West 12.7 mph - N/A   Unknown
8:20 PM 51.8 °F 17.6 °F 26% 30.15 in 6.2 mi WSW 6.9 mph - N/A   Unknown
9:20 PM 50.0 °F 21.2 °F 32% 30.15 in 6.2 mi Variable 1.2 mph - N/A   Unknown
10:20 PM 51.8 °F 23.0 °F 33% 30.15 in 6.2 mi SSW 6.9 mph - N/A   Unknown
11:20 PM 50.0 °F 21.2 °F 32% 30.15 in 6.2 mi SSW 4.6 mph - N/A   Unknown